Des Moines, IA

7:21 PM CST on January 22, 2017 (GMT -0600)
Des Moines International

Weather History for KDSM - April, 2014

Change the Weather History Date:

Monday, April 21, 2014

  Actual Average Record
Temperature  
Mean Temperature 64 °F 54 °F  
Max Temperature 74 °F 65 °F 91 °F (1980)
Min Temperature 54 °F 43 °F 24 °F (1966)
Degree Days  
Heating Degree Days 1 12  
Month to date heating degree days 316 322  
Since 1 July heating degree days 6553 5949  
Cooling Degree Days 0 1  
Month to date cooling degree days 12 4  
Year to date cooling degree days 12 5  
Growing Degree Days 15 (Base 50)    
Moisture  
Dew Point 49 °F    
Average Humidity 49    
Maximum Humidity 78    
Minimum Humidity 20    
Precipitation  
Precipitation 0.01 in 0.14 in 1.66 in (1984)
Month to date precipitation 2.19 2.47  
Year to date precipitation 5.16 7.05  
Snow  
Snow 0.00 in 0.10 in 1.00 in (1918)
Month to date snowfall 0.8 1.6  
Since 1 July snowfall 48.3 35.1  
Snow Depth 0.00 in    
Sea Level Pressure  
Sea Level Pressure 29.95 in    
Wind  
Wind Speed 12 mph (NW)    
Max Wind Speed 23 mph    
Max Gust Speed 33 mph    
Visibility 9 miles    
Events Rain    
T = Trace of Precipitation, MM = Missing Value Source: NWS Daily Summary

Daily Weather History Graph

Daily Weather History Graph

Search for Another Location

Airport or City:

Trip Planner

Search our weather history database for the weather conditions in past years. The results will help you decide how hot, cold, wet, or windy it might be!

Date:

Astronomy

Apr. 21, 2014 Rise Set
Actual Time 6:25 AM CDT 8:01 PM CDT
Civil Twilight 5:56 AM CDT 8:31 PM CDT
Nautical Twilight 5:21 AM CDT 9:06 PM CDT
Astronomical Twilight 4:43 AM CDT 9:44 PM CDT
Moon 1:33 AM CDT (4/21) 11:52 AM CDT (4/21)
Length of Visible Light 14h 34m
Length of Day
13h 36m
Waning Gibbous, 57% of the Moon is Illuminated
Apr 21
Waning Gibbous
Apr 22
Last Quarter
Apr 29
New
May 6
First Quarter
May 14
Full

Hourly Weather History & Observations

Time (CDT) Temp. Dew Point Humidity Pressure Visibility Wind Dir Wind Speed Gust Speed Precip Events Conditions
12:54 AM 66.0 °F 54.0 °F 65% 29.95 in 10.0 mi SSW 4.6 mph - N/A   Overcast
1:54 AM 64.0 °F 54.0 °F 70% 29.95 in 10.0 mi Calm Calm - N/A   Overcast
2:54 AM 64.9 °F 54.0 °F 68% 29.95 in 10.0 mi Calm Calm - N/A   Overcast
3:54 AM 63.0 °F 54.0 °F 72% 29.93 in 10.0 mi WSW 3.5 mph - N/A   Mostly Cloudy
4:54 AM 63.0 °F 54.0 °F 72% 29.93 in 10.0 mi SSE 3.5 mph - N/A   Overcast
5:54 AM 61.0 °F 54.0 °F 78% 29.93 in 10.0 mi SSE 4.6 mph - N/A   Mostly Cloudy
6:54 AM 60.1 °F 54.0 °F 80% 29.93 in 10.0 mi South 6.9 mph - N/A   Mostly Cloudy
7:54 AM 63.0 °F 55.9 °F 78% 29.94 in 7.0 mi South 5.8 mph - N/A   Overcast
8:54 AM 64.9 °F 57.0 °F 75% 29.94 in 6.0 mi SSW 6.9 mph - 0.00 in   Haze
9:54 AM 64.9 °F 57.0 °F 75% 29.92 in 7.0 mi SW 9.2 mph - 0.00 in Rain Light Rain
10:54 AM 66.0 °F 59.0 °F 78% 29.95 in 7.0 mi WNW 12.7 mph - 0.01 in   Overcast
11:12 AM 68.0 °F 57.9 °F 70% 29.96 in 7.0 mi WNW 9.2 mph - N/A   Overcast
11:54 AM 69.1 °F 57.9 °F 68% 29.95 in 10.0 mi NW 5.8 mph - N/A   Overcast
12:54 PM 72.0 °F 55.0 °F 55% 29.93 in 10.0 mi NW 6.9 mph - N/A   Overcast
1:54 PM 72.0 °F 55.9 °F 57% 29.93 in 10.0 mi NNW 16.1 mph 21.9 mph N/A   Mostly Cloudy
2:54 PM 72.0 °F 55.9 °F 57% 29.94 in 9.0 mi North 18.4 mph 28.8 mph N/A   Mostly Cloudy
3:54 PM 72.0 °F 46.0 °F 40% 29.94 in 10.0 mi North 13.8 mph 26.5 mph N/A   Mostly Cloudy
4:54 PM 73.9 °F 39.9 °F 29% 29.93 in 10.0 mi North 18.4 mph 24.2 mph N/A   Scattered Clouds
5:54 PM 73.9 °F 30.9 °F 21% 29.94 in 10.0 mi North 17.3 mph 26.5 mph N/A   Scattered Clouds
6:54 PM 71.1 °F 32.0 °F 24% 29.95 in 10.0 mi North 17.3 mph - N/A   Scattered Clouds
7:54 PM 66.9 °F 37.0 °F 33% 29.96 in 10.0 mi North 19.6 mph 25.3 mph N/A   Partly Cloudy
8:54 PM 64.0 °F 37.9 °F 38% 30.00 in 10.0 mi North 18.4 mph 26.5 mph N/A   Clear
9:54 PM 60.1 °F 35.1 °F 39% 30.03 in 10.0 mi North 19.6 mph 28.8 mph N/A   Clear
10:54 PM 57.0 °F 34.0 °F 42% 30.04 in 10.0 mi North 18.4 mph 26.5 mph N/A   Clear
11:54 PM 55.0 °F 33.1 °F 43% 30.06 in 10.0 mi North 15.0 mph 26.5 mph N/A   Clear